This is the latest recevied weather packets stored in our database for station/object DL4NBA-1. If no packets are shown the sender has not sent any weather packets the latest 10 day(s).
| Time | Temp. | Humidity | Pressure | Rain* | Wind** | Luminosity | Snow |
|---|---|---|---|---|---|---|---|
| 1777920849 | 17.78° C | - | - | 0 mm | 1.79 m/s, 316° | - | - |
| 1777920550 | 17.78° C | - | - | 0 mm | 1.79 m/s, 316° | - | - |
| 1777920247 | 17.78° C | - | - | 0 mm | 2.24 m/s, 309° | - | - |
| 1777919349 | 18.33° C | - | - | 0 mm | 2.68 m/s, 318° | - | - |
| 1777919051 | 18.33° C | - | - | 0 mm | 2.68 m/s, 314° | - | - |
| 1777918749 | 18.89° C | - | - | 0 mm | 2.24 m/s, 302° | - | - |
| 1777918448 | 18.89° C | - | - | 0 mm | 2.68 m/s, 297° | - | - |
| 1777918150 | 18.89° C | - | - | 0 mm | 2.68 m/s, 322° | - | - |
| 1777917851 | 18.89° C | - | - | 0 mm | 2.68 m/s, 304° | - | - |
| 1777917248 | 19.44° C | - | - | 0 mm | 3.13 m/s, 309° | - | - |
| 1777916949 | 19.44° C | - | - | 0 mm | 2.24 m/s, 311° | - | - |
| 1777916649 | 20° C | - | - | 0 mm | 3.13 m/s, 325° | - | - |
| 1777916052 | 20° C | - | - | 0 mm | 2.24 m/s, 318° | - | - |
| 1777915449 | 20° C | - | - | 0 mm | 2.68 m/s, 315° | - | - |
| 1777915150 | 20° C | - | - | 0 mm | 3.13 m/s, 319° | - | - |
| 1777914852 | 20° C | - | - | 0 mm | 3.13 m/s, 274° | - | - |
| 1777914553 | 20.56° C | - | - | 0 mm | 2.68 m/s, 305° | - | - |
| 1777914251 | 20.56° C | - | - | 0 mm | 3.13 m/s, 326° | - | - |
| 1777913948 | 20.56° C | - | - | 0 mm | 2.68 m/s, 280° | - | - |
| 1777913649 | 20.56° C | - | - | 0 mm | 3.58 m/s, 285° | - | - |
| 1777913350 | 21.11° C | - | - | 0 mm | 3.13 m/s, 291° | - | - |
| 1777912749 | 21.11° C | - | - | 0 mm | 3.13 m/s, 312° | - | - |
| 1777911851 | 22.78° C | - | - | 0 mm | 3.13 m/s, 287° | - | - |
| 1777911552 | 21.67° C | - | - | 0 mm | 3.58 m/s, 276° | - | - |
| 1777911249 | 22.22° C | - | - | 0 mm | 3.13 m/s, 294° | - | - |
* Rain latest hour (hover to see other rain measurements)
** Current wind speed in m/s (hover to see current wind gust speed)